Location: Praha
(50.0830°N, 14.4670°E)
Time: 05:33:14
(UTC+02:00)

ISS - Pass Details

Date: 24 May 2021
Orbit: 417 x 422 km, 51.6° (Epoch: 13 June)

Event Time Altitude Azimuth Distance (km) Brightness Sun altitude
Rises 22:59:22 0° 287° (WNW) 2,368 0.8 -14.2°
Reaches altitude 10° 23:01:29 10° 285° (WNW) 1,503 -0.3 -14.4°
Maximum altitude 23:04:50 74° 201° (SSW) 442 -3.8 -14.6°
Enters shadow 23:06:29 28° 121° (ESE) 827 -2.7 -14.7°
